Time,TemperatureF,DewpointF,PressureIn,WindDirection,WindDirectionDegrees,WindSpeedMPH,WindSpeedGustMPH,Humidity,HourlyPrecipIn,Conditions,Clouds,dailyrainin,SoftwareType,DateUTC
2013-06-17 00:00:00,76.1,64.4,29.59,SE,135,0.0,0.0,67,0.00,,,0.00,VWS V14.01,2013-06-17 04:00:00,
2013-06-17 00:01:00,76.1,64.4,29.59,ESE,112,0.0,0.0,67,0.00,,,0.00,VWS V14.01,2013-06-17 04:01:00,
2013-06-17 00:02:00,76.1,64.4,29.59,SE,135,0.0,0.0,67,0.00,,,0.00,VWS V14.01,2013-06-17 04:02:00,
2013-06-17 00:03:00,76.1,64.4,29.59,SE,135,0.0,0.0,67,0.00,,,0.00,VWS V14.01,2013-06-17 04:03:00,
2013-06-17 00:08:00,76.1,64.4,29.59,ESE,112,0.0,0.0,67,0.00,,,0.00,VWS V14.01,2013-06-17 04:08:00,
2013-06-17 00:13:00,75.9,64.2,29.59,SE,135,0.0,0.0,67,0.00,,,0.00,VWS V14.01,2013-06-17 04:13:00,
2013-06-17 00:18:00,75.9,64.2,29.59,SE,135,0.0,0.0,67,0.00,,,0.00,VWS V14.01,2013-06-17 04:18:00,
2013-06-17 00:23:00,75.7,64.4,29.59,ESE,112,0.0,0.0,68,0.00,,,0.00,VWS V14.01,2013-06-17 04:23:00,
2013-06-17 00:28:00,75.7,64.0,29.59,SE,135,0.0,0.0,67,0.00,,,0.00,VWS V14.01,2013-06-17 04:28:00,
2013-06-17 00:33:00,75.7,64.4,29.59,SE,135,0.0,0.0,68,0.00,,,0.00,VWS V14.01,2013-06-17 04:33:00,
2013-06-17 00:38:00,75.6,64.3,29.59,SE,135,0.0,0.0,68,0.00,,,0.00,VWS V14.01,2013-06-17 04:38:00,
2013-06-17 00:43:00,75.6,64.3,29.59,ESE,112,0.0,0.0,68,0.00,,,0.00,VWS V14.01,2013-06-17 04:43:00,
2013-06-17 00:48:00,75.4,64.1,29.59,ESE,112,0.0,0.0,68,0.00,,,0.00,VWS V14.01,2013-06-17 04:48:00,
2013-06-17 00:53:00,75.4,64.1,29.59,SE,135,0.0,0.0,68,0.00,,,0.00,VWS V14.01,2013-06-17 04:53:00,
2013-06-17 00:58:00,75.2,63.9,29.59,SE,135,0.0,0.0,68,0.00,,,0.00,VWS V14.01,2013-06-17 04:58:00,
2013-06-17 01:03:00,75.2,63.9,29.59,SE,135,0.0,0.0,68,0.00,,,0.00,VWS V14.01,2013-06-17 05:03:00,
2013-06-17 01:08:00,75.0,64.2,29.59,ESE,112,0.0,0.0,69,0.00,,,0.00,VWS V14.01,2013-06-17 05:08:00,
2013-06-17 01:13:00,75.0,63.8,29.59,SE,135,0.0,0.0,68,0.00,,,0.00,VWS V14.01,2013-06-17 05:13:00,
2013-06-17 01:18:00,75.0,63.8,29.59,SE,135,0.0,0.0,68,0.00,,,0.00,VWS V14.01,2013-06-17 05:18:00,
2013-06-17 01:23:00,74.8,63.6,29.59,ESE,112,0.0,0.0,68,0.00,,,0.00,VWS V14.01,2013-06-17 05:23:00,
2013-06-17 01:28:00,74.8,63.6,29.59,SE,135,0.0,0.0,68,0.00,,,0.00,VWS V14.01,2013-06-17 05:28:00,
2013-06-17 01:33:00,74.8,63.6,29.59,ESE,112,0.0,0.0,68,0.00,,,0.00,VWS V14.01,2013-06-17 05:33:00,
2013-06-17 01:39:00,74.8,63.6,29.59,SE,135,0.0,0.0,68,0.00,,,0.00,VWS V14.01,2013-06-17 05:39:00,
2013-06-17 01:44:00,74.7,63.4,29.59,SE,135,0.0,0.0,68,0.00,,,0.00,VWS V14.01,2013-06-17 05:44:00,
2013-06-17 01:49:00,74.7,63.4,29.59,SE,135,0.0,0.0,68,0.00,,,0.00,VWS V14.01,2013-06-17 05:49:00,
2013-06-17 01:54:00,74.7,63.4,29.59,ESE,112,0.0,0.0,68,0.00,,,0.00,VWS V14.01,2013-06-17 05:54:00,
2013-06-17 01:59:00,74.5,63.2,29.59,ESE,112,0.0,0.0,68,0.00,,,0.00,VWS V14.01,2013-06-17 05:59:00,
2013-06-17 02:04:00,74.5,63.2,29.59,SE,135,0.0,0.0,68,0.00,,,0.00,VWS V14.01,2013-06-17 06:04:00,
2013-06-17 02:09:00,74.5,63.2,29.59,SE,135,0.0,0.0,68,0.00,,,0.00,VWS V14.01,2013-06-17 06:09:00,
2013-06-17 02:14:00,74.3,63.1,29.59,ESE,112,0.0,0.0,68,0.00,,,0.00,VWS V14.01,2013-06-17 06:14:00,
2013-06-17 02:19:00,74.3,63.1,29.59,SE,135,0.0,0.0,68,0.00,,,0.00,VWS V14.01,2013-06-17 06:19:00,
2013-06-17 02:24:00,74.1,63.3,29.59,SE,135,0.0,0.0,69,0.00,,,0.00,VWS V14.01,2013-06-17 06:24:00,
2013-06-17 02:29:00,74.1,63.3,29.59,ESE,112,0.0,0.0,69,0.00,,,0.00,VWS V14.01,2013-06-17 06:29:00,
2013-06-17 02:34:00,74.1,63.3,29.59,ESE,112,0.0,0.0,69,0.00,,,0.00,VWS V14.01,2013-06-17 06:34:00,
2013-06-17 02:39:00,73.9,63.1,29.56,ESE,112,0.0,0.0,69,0.00,,,0.00,VWS V14.01,2013-06-17 06:39:00,
2013-06-17 02:44:00,73.9,63.1,29.56,ESE,112,0.0,0.0,69,0.00,,,0.00,VWS V14.01,2013-06-17 06:44:00,
2013-06-17 02:49:00,73.8,63.0,29.56,ESE,112,0.0,0.0,69,0.00,,,0.00,VWS V14.01,2013-06-17 06:49:00,
2013-06-17 02:54:00,73.9,63.1,29.56,SE,135,0.0,0.0,69,0.00,,,0.00,VWS V14.01,2013-06-17 06:54:00,
2013-06-17 02:59:00,73.8,63.0,29.56,ESE,112,0.0,0.0,69,0.00,,,0.00,VWS V14.01,2013-06-17 06:59:00,
2013-06-17 03:04:00,73.8,63.0,29.56,SE,135,0.0,0.0,69,0.00,,,0.00,VWS V14.01,2013-06-17 07:04:00,
2013-06-17 03:09:00,73.8,63.0,29.56,ESE,112,0.0,0.0,69,0.00,,,0.00,VWS V14.01,2013-06-17 07:09:00,
2013-06-17 03:14:00,73.8,63.4,29.56,SE,135,0.0,0.0,70,0.00,,,0.00,VWS V14.01,2013-06-17 07:14:00,
2013-06-17 03:19:00,73.8,63.4,29.56,ESE,112,0.0,0.0,70,0.00,,,0.00,VWS V14.01,2013-06-17 07:19:00,
2013-06-17 03:24:00,73.6,63.2,29.56,SE,135,0.0,0.0,70,0.00,,,0.00,VWS V14.01,2013-06-17 07:24:00,
2013-06-17 03:29:00,73.6,63.2,29.56,SE,135,0.0,0.0,70,0.00,,,0.00,VWS V14.01,2013-06-17 07:29:00,
2013-06-17 03:34:00,73.6,63.2,29.56,SE,135,0.0,0.0,70,0.00,,,0.00,VWS V14.01,2013-06-17 07:34:00,
2013-06-17 03:40:00,73.6,63.2,29.56,SE,135,0.0,0.0,70,0.00,,,0.00,VWS V14.01,2013-06-17 07:40:00,
2013-06-17 03:45:00,73.6,63.2,29.59,ESE,112,0.0,0.0,70,0.00,,,0.00,VWS V14.01,2013-06-17 07:45:00,
2013-06-17 03:50:00,73.6,63.2,29.59,ESE,112,0.0,0.0,70,0.00,,,0.00,VWS V14.01,2013-06-17 07:50:00,
2013-06-17 03:55:00,73.6,63.2,29.56,ESE,112,0.0,0.0,70,0.00,,,0.00,VWS V14.01,2013-06-17 07:55:00,
2013-06-17 04:00:00,73.6,63.2,29.56,ESE,112,0.0,0.0,70,0.00,,,0.00,VWS V14.01,2013-06-17 08:00:00,
2013-06-17 04:05:00,73.6,63.2,29.56,SE,135,0.0,0.0,70,0.00,,,0.00,VWS V14.01,2013-06-17 08:05:00,
2013-06-17 04:10:00,73.4,63.0,29.59,SE,135,0.0,0.0,70,0.00,,,0.00,VWS V14.01,2013-06-17 08:10:00,
2013-06-17 04:15:00,73.4,63.0,29.59,SE,135,0.0,0.0,70,0.00,,,0.00,VWS V14.01,2013-06-17 08:15:00,
2013-06-17 04:20:00,73.4,63.0,29.59,ESE,112,0.0,0.0,70,0.00,,,0.00,VWS V14.01,2013-06-17 08:20:00,
2013-06-17 04:25:00,73.2,63.3,29.59,ESE,112,0.0,0.0,71,0.00,,,0.00,VWS V14.01,2013-06-17 08:25:00,
2013-06-17 04:30:00,73.2,63.3,29.59,SE,135,0.0,0.0,71,0.00,,,0.00,VWS V14.01,2013-06-17 08:30:00,
2013-06-17 04:35:00,73.2,63.3,29.59,ESE,112,0.0,0.0,71,0.00,,,0.00,VWS V14.01,2013-06-17 08:35:00,
2013-06-17 04:40:00,73.2,63.3,29.59,ESE,112,0.0,0.0,71,0.00,,,0.00,VWS V14.01,2013-06-17 08:40:00,
2013-06-17 04:45:00,73.2,63.3,29.59,SE,135,0.0,0.0,71,0.00,,,0.00,VWS V14.01,2013-06-17 08:45:00,
2013-06-17 04:50:00,73.2,63.3,29.59,SE,135,0.0,0.0,71,0.00,,,0.00,VWS V14.01,2013-06-17 08:50:00,
2013-06-17 04:55:00,73.0,63.1,29.59,ESE,112,0.0,0.0,71,0.00,,,0.00,VWS V14.01,2013-06-17 08:55:00,
2013-06-17 05:00:00,73.0,63.5,29.59,SE,135,0.0,0.0,72,0.00,,,0.00,VWS V14.01,2013-06-17 09:00:00,
2013-06-17 05:05:00,73.0,63.1,29.59,ESE,112,0.0,0.0,71,0.00,,,0.00,VWS V14.01,2013-06-17 09:05:00,
2013-06-17 05:10:00,73.0,63.5,29.59,SE,135,0.0,0.0,72,0.00,,,0.00,VWS V14.01,2013-06-17 09:10:00,
2013-06-17 05:15:00,73.0,63.5,29.59,SE,135,0.0,0.0,72,0.00,,,0.00,VWS V14.01,2013-06-17 09:15:00,
2013-06-17 05:20:00,73.0,63.5,29.59,SE,135,0.0,0.0,72,0.00,,,0.00,VWS V14.01,2013-06-17 09:20:00,
2013-06-17 05:25:00,72.9,63.3,29.59,SE,135,0.0,0.0,72,0.00,,,0.00,VWS V14.01,2013-06-17 09:25:00,
2013-06-17 05:30:00,72.9,63.3,29.59,SE,135,0.0,0.0,72,0.00,,,0.00,VWS V14.01,2013-06-17 09:30:00,
2013-06-17 05:35:00,72.9,63.3,29.59,ESE,112,0.0,0.0,72,0.00,,,0.00,VWS V14.01,2013-06-17 09:35:00,
2013-06-17 05:40:00,72.9,63.3,29.59,SE,135,0.0,0.0,72,0.00,,,0.00,VWS V14.01,2013-06-17 09:40:00,
2013-06-17 05:45:00,72.9,63.3,29.59,SE,135,0.0,0.0,72,0.00,,,0.00,VWS V14.01,2013-06-17 09:45:00,
2013-06-17 05:51:00,72.9,63.3,29.59,SE,135,0.0,0.0,72,0.00,,,0.00,VWS V14.01,2013-06-17 09:51:00,
2013-06-17 05:56:00,72.7,63.1,29.59,ESE,112,0.0,0.0,72,0.00,,,0.00,VWS V14.01,2013-06-17 09:56:00,
2013-06-17 06:01:00,72.7,63.1,29.59,ESE,112,0.0,0.0,72,0.00,,,0.00,VWS V14.01,2013-06-17 10:01:00,
2013-06-17 06:06:00,72.7,63.1,29.59,SE,135,0.0,0.0,72,0.00,,,0.00,VWS V14.01,2013-06-17 10:06:00,
2013-06-17 06:11:00,72.7,63.1,29.59,SE,135,0.0,0.0,72,0.00,,,0.00,VWS V14.01,2013-06-17 10:11:00,
2013-06-17 06:16:00,72.7,63.1,29.59,ESE,112,0.0,0.0,72,0.00,,,0.00,VWS V14.01,2013-06-17 10:16:00,
2013-06-17 06:21:00,72.5,63.0,29.59,SE,135,0.0,0.0,72,0.00,,,0.00,VWS V14.01,2013-06-17 10:21:00,
2013-06-17 06:26:00,72.5,63.0,29.59,SE,135,0.0,0.0,72,0.00,,,0.00,VWS V14.01,2013-06-17 10:26:00,
2013-06-17 06:31:00,72.5,63.0,29.59,ESE,112,0.0,0.0,72,0.00,,,0.00,VWS V14.01,2013-06-17 10:31:00,
2013-06-17 06:36:00,72.5,63.0,29.59,SE,135,0.0,0.0,72,0.00,,,0.00,VWS V14.01,2013-06-17 10:36:00,
2013-06-17 06:41:00,72.5,63.0,29.59,SE,135,0.0,0.0,72,0.00,,,0.00,VWS V14.01,2013-06-17 10:41:00,
2013-06-17 06:46:00,72.5,63.4,29.59,SE,135,0.0,0.0,73,0.00,,,0.00,VWS V14.01,2013-06-17 10:46:00,
2013-06-17 06:51:00,72.7,63.1,29.59,SE,135,0.0,0.0,72,0.00,,,0.00,VWS V14.01,2013-06-17 10:51:00,
2013-06-17 06:56:00,72.7,63.5,29.59,SE,135,0.0,0.0,73,0.00,,,0.00,VWS V14.01,2013-06-17 10:56:00,
2013-06-17 07:01:00,72.7,63.5,29.59,SE,135,0.0,0.0,73,0.00,,,0.00,VWS V14.01,2013-06-17 11:01:00,
2013-06-17 07:06:00,72.7,63.5,29.59,SE,135,0.0,0.0,73,0.00,,,0.00,VWS V14.01,2013-06-17 11:06:00,
2013-06-17 07:11:00,72.9,63.7,29.59,SE,135,0.0,0.0,73,0.00,,,0.00,VWS V14.01,2013-06-17 11:11:00,
2013-06-17 07:16:00,72.9,63.7,29.59,ESE,112,0.0,0.0,73,0.00,,,0.00,VWS V14.01,2013-06-17 11:16:00,
2013-06-17 07:21:00,73.0,63.5,29.59,East,90,0.0,0.0,72,0.00,,,0.00,VWS V14.01,2013-06-17 11:21:00,
2013-06-17 07:26:00,73.2,63.7,29.59,SE,135,0.0,0.0,72,0.00,,,0.00,VWS V14.01,2013-06-17 11:26:00,
2013-06-17 07:31:00,73.4,63.8,29.59,East,90,0.0,0.0,72,0.00,,,0.00,VWS V14.01,2013-06-17 11:31:00,
2013-06-17 07:36:00,73.6,63.6,29.59,SE,135,0.0,0.0,71,0.00,,,0.00,VWS V14.01,2013-06-17 11:36:00,
2013-06-17 07:41:00,73.8,63.8,29.59,SE,135,0.0,0.0,71,0.00,,,0.00,VWS V14.01,2013-06-17 11:41:00,
2013-06-17 07:46:00,73.8,63.8,29.59,East,90,0.0,0.0,71,0.00,,,0.00,VWS V14.01,2013-06-17 11:46:00,
2013-06-17 07:52:00,73.8,63.8,29.59,SE,135,0.0,0.0,71,0.00,,,0.00,VWS V14.01,2013-06-17 11:52:00,
2013-06-17 07:57:00,73.8,63.8,29.59,East,90,0.0,0.0,71,0.00,,,0.00,VWS V14.01,2013-06-17 11:57:00,
2013-06-17 08:02:00,73.9,64.0,29.59,SE,135,0.0,0.0,71,0.00,,,0.00,VWS V14.01,2013-06-17 12:02:00,
2013-06-17 08:07:00,74.1,64.1,29.59,SE,135,0.0,0.0,71,0.00,,,0.00,VWS V14.01,2013-06-17 12:07:00,
2013-06-17 08:12:00,74.3,64.3,29.59,SE,135,0.0,0.0,71,0.00,,,0.00,VWS V14.01,2013-06-17 12:12:00,
2013-06-17 08:17:00,74.3,64.7,29.59,SE,135,0.0,0.0,72,0.00,,,0.00,VWS V14.01,2013-06-17 12:17:00,
2013-06-17 08:22:00,74.3,64.7,29.59,SE,135,0.0,0.0,72,0.00,,,0.00,VWS V14.01,2013-06-17 12:22:00,
2013-06-17 08:27:00,74.7,64.6,29.59,SE,135,0.0,0.0,71,0.00,,,0.00,VWS V14.01,2013-06-17 12:27:00,
2013-06-17 08:32:00,75.0,65.0,29.59,SE,135,0.0,0.0,71,0.00,,,0.00,VWS V14.01,2013-06-17 12:32:00,
2013-06-17 08:37:00,75.2,64.8,29.59,SE,135,0.0,0.0,70,0.00,,,0.00,VWS V14.01,2013-06-17 12:37:00,
2013-06-17 08:42:00,75.4,64.9,29.59,East,90,0.0,0.0,70,0.00,,,0.00,VWS V14.01,2013-06-17 12:42:00,
2013-06-17 08:47:00,75.4,64.9,29.59,SE,135,0.0,0.0,70,0.00,,,0.00,VWS V14.01,2013-06-17 12:47:00,
2013-06-17 08:52:00,75.7,65.3,29.59,SE,135,0.0,0.0,70,0.00,,,0.00,VWS V14.01,2013-06-17 12:52:00,
2013-06-17 08:57:00,76.5,66.0,29.59,SE,135,0.0,0.0,70,0.00,,,0.00,VWS V14.01,2013-06-17 12:57:00,
2013-06-17 09:02:00,76.8,66.3,29.59,SE,135,0.0,0.0,70,0.00,,,0.00,VWS V14.01,2013-06-17 13:02:00,
2013-06-17 09:07:00,77.2,66.2,29.59,SE,135,0.0,0.0,69,0.00,,,0.00,VWS V14.01,2013-06-17 13:07:00,
2013-06-17 09:12:00,77.4,66.4,29.59,SE,135,0.0,0.0,69,0.00,,,0.00,VWS V14.01,2013-06-17 13:12:00,
2013-06-17 09:17:00,77.7,66.8,29.59,SE,135,0.0,0.0,69,0.00,,,0.00,VWS V14.01,2013-06-17 13:17:00,
2013-06-17 09:22:00,77.7,66.8,29.59,SE,135,0.0,0.0,69,0.00,,,0.00,VWS V14.01,2013-06-17 13:22:00,
2013-06-17 09:27:00,78.1,67.1,29.59,SE,135,0.0,0.0,69,0.00,,,0.00,VWS V14.01,2013-06-17 13:27:00,
2013-06-17 09:32:00,79.3,67.9,29.59,SE,135,0.0,0.0,68,0.00,,,0.00,VWS V14.01,2013-06-17 13:32:00,
2013-06-17 09:37:00,79.9,67.9,29.59,SE,135,0.0,0.0,67,0.00,,,0.00,VWS V14.01,2013-06-17 13:37:00,
2013-06-17 09:42:00,80.4,68.5,29.59,SE,135,0.0,0.0,67,0.00,,,0.00,VWS V14.01,2013-06-17 13:42:00,
2013-06-17 09:47:00,81.0,68.5,29.59,SE,135,0.0,0.0,66,0.00,,,0.00,VWS V14.01,2013-06-17 13:47:00,
2013-06-17 09:52:00,81.7,69.2,29.56,SE,135,0.0,0.0,66,0.00,,,0.00,VWS V14.01,2013-06-17 13:52:00,
2013-06-17 09:58:00,83.3,69.9,29.56,SE,135,0.0,0.0,64,0.00,,,0.00,VWS V14.01,2013-06-17 13:58:00,
2013-06-17 10:03:00,83.3,69.9,29.56,East,90,0.0,0.0,64,0.00,,,0.00,VWS V14.01,2013-06-17 14:03:00,
2013-06-17 10:08:00,83.3,69.9,29.56,ESE,112,0.0,0.0,64,0.00,,,0.00,VWS V14.01,2013-06-17 14:08:00,
2013-06-17 10:13:00,83.7,69.7,29.56,East,90,0.0,0.0,63,0.00,,,0.00,VWS V14.01,2013-06-17 14:13:00,
2013-06-17 10:18:00,84.9,70.5,29.56,SE,135,0.0,0.0,62,0.00,,,0.00,VWS V14.01,2013-06-17 14:18:00,
2013-06-17 10:23:00,84.7,70.3,29.56,ENE,68,0.0,0.0,62,0.00,,,0.00,VWS V14.01,2013-06-17 14:23:00,
2013-06-17 10:28:00,84.4,69.9,29.56,ESE,112,0.0,0.0,62,0.00,,,0.00,VWS V14.01,2013-06-17 14:28:00,
2013-06-17 10:33:00,84.6,70.1,29.56,SE,135,0.0,0.0,62,0.00,,,0.00,VWS V14.01,2013-06-17 14:33:00,
2013-06-17 10:38:00,84.4,69.9,29.56,ESE,112,0.0,0.0,62,0.00,,,0.00,VWS V14.01,2013-06-17 14:38:00,
2013-06-17 10:43:00,83.8,69.9,29.56,ESE,112,0.0,0.0,63,0.00,,,0.00,VWS V14.01,2013-06-17 14:43:00,
2013-06-17 10:48:00,83.3,69.4,29.56,ESE,112,0.0,0.0,63,0.00,,,0.00,VWS V14.01,2013-06-17 14:48:00,
2013-06-17 10:53:00,83.1,69.2,29.56,SE,135,0.0,0.0,63,0.00,,,0.00,VWS V14.01,2013-06-17 14:53:00,
2013-06-17 10:58:00,83.5,69.6,29.56,SE,135,0.0,0.0,63,0.00,,,0.00,VWS V14.01,2013-06-17 14:58:00,
2013-06-17 11:03:00,83.5,69.6,29.56,ESE,112,0.0,0.0,63,0.00,,,0.00,VWS V14.01,2013-06-17 15:03:00,
2013-06-17 11:08:00,83.1,69.2,29.56,SE,135,0.0,0.0,63,0.00,,,0.00,VWS V14.01,2013-06-17 15:08:00,
2013-06-17 11:13:00,83.5,69.6,29.56,SE,135,0.0,0.0,63,0.00,,,0.00,VWS V14.01,2013-06-17 15:13:00,
2013-06-17 11:18:00,83.7,69.7,29.56,ESE,112,0.0,0.0,63,0.00,,,0.00,VWS V14.01,2013-06-17 15:18:00,
2013-06-17 11:23:00,83.8,69.9,29.56,SE,135,0.0,0.0,63,0.00,,,0.00,VWS V14.01,2013-06-17 15:23:00,
2013-06-17 11:28:00,83.1,69.2,29.56,East,90,0.0,0.0,63,0.00,,,0.00,VWS V14.01,2013-06-17 15:28:00,
2013-06-17 11:33:00,82.4,69.0,29.56,ESE,112,0.0,0.0,64,0.00,,,0.00,VWS V14.01,2013-06-17 15:33:00,
2013-06-17 11:38:00,82.6,68.7,29.56,SE,135,0.0,0.0,63,0.00,,,0.00,VWS V14.01,2013-06-17 15:38:00,
2013-06-17 11:43:00,81.9,68.0,29.56,ESE,112,0.0,0.0,63,0.00,,,0.00,VWS V14.01,2013-06-17 15:43:00,
2013-06-17 11:48:00,81.7,68.3,29.56,SE,135,0.0,0.0,64,0.00,,,0.00,VWS V14.01,2013-06-17 15:48:00,
2013-06-17 11:54:00,81.9,68.5,29.56,SE,135,0.0,0.0,64,0.00,,,0.00,VWS V14.01,2013-06-17 15:54:00,
2013-06-17 11:59:00,81.3,68.0,29.56,SE,135,0.0,0.0,64,0.00,,,0.00,VWS V14.01,2013-06-17 15:59:00,
2013-06-17 12:04:00,81.1,67.8,29.56,SE,135,0.0,0.0,64,0.00,,,0.00,VWS V14.01,2013-06-17 16:04:00,
2013-06-17 12:09:00,80.8,67.9,29.56,SE,135,0.0,0.0,65,0.00,,,0.00,VWS V14.01,2013-06-17 16:09:00,
2013-06-17 12:14:00,80.2,67.9,29.56,SE,135,0.0,0.0,66,0.00,,,0.00,VWS V14.01,2013-06-17 16:14:00,
2013-06-17 12:19:00,79.7,67.8,29.56,ESE,112,0.0,0.0,67,0.00,,,0.00,VWS V14.01,2013-06-17 16:19:00,
2013-06-17 12:24:00,79.7,67.8,29.56,ESE,112,0.0,0.0,67,0.00,,,0.00,VWS V14.01,2013-06-17 16:24:00,
2013-06-17 12:29:00,79.7,67.8,29.56,SE,135,0.0,0.0,67,0.00,,,0.00,VWS V14.01,2013-06-17 16:29:00,
2013-06-17 12:34:00,79.9,68.4,29.56,West,270,0.0,0.0,68,0.00,,,0.00,VWS V14.01,2013-06-17 16:34:00,
2013-06-17 12:39:00,79.7,68.2,29.56,SE,135,0.0,0.0,68,0.00,,,0.00,VWS V14.01,2013-06-17 16:39:00,
2013-06-17 12:44:00,79.5,68.0,29.56,SE,135,0.0,0.0,68,0.00,,,0.00,VWS V14.01,2013-06-17 16:44:00,
2013-06-17 12:49:00,79.5,68.0,29.56,East,90,0.0,0.0,68,0.00,,,0.00,VWS V14.01,2013-06-17 16:49:00,
2013-06-17 12:54:00,79.3,67.9,29.56,ESE,112,0.0,0.0,68,0.00,,,0.00,VWS V14.01,2013-06-17 16:54:00,
2013-06-17 12:59:00,79.2,67.7,29.56,SE,135,0.0,0.0,68,0.00,,,0.00,VWS V14.01,2013-06-17 16:59:00,
2013-06-17 13:04:00,79.0,67.5,29.56,SE,135,0.0,0.0,68,0.00,,,0.00,VWS V14.01,2013-06-17 17:04:00,
2013-06-17 13:09:00,79.0,67.9,29.56,SE,135,0.0,0.0,69,0.00,,,0.00,VWS V14.01,2013-06-17 17:09:00,
2013-06-17 13:14:00,79.0,67.9,29.56,SE,135,0.0,0.0,69,0.00,,,0.00,VWS V14.01,2013-06-17 17:14:00,
2013-06-17 13:19:00,79.0,67.9,29.56,SE,135,0.0,0.0,69,0.00,,,0.00,VWS V14.01,2013-06-17 17:19:00,
2013-06-17 13:24:00,79.0,67.9,29.56,SSE,158,0.0,0.0,69,0.00,,,0.00,VWS V14.01,2013-06-17 17:24:00,
2013-06-17 13:29:00,79.0,67.9,29.56,SE,135,0.0,0.0,69,0.00,,,0.00,VWS V14.01,2013-06-17 17:29:00,
2013-06-17 13:34:00,79.2,68.1,29.56,SE,135,0.0,0.0,69,0.00,,,0.00,VWS V14.01,2013-06-17 17:34:00,
2013-06-17 13:39:00,79.3,68.3,29.56,SE,135,0.0,0.0,69,0.00,,,0.00,VWS V14.01,2013-06-17 17:39:00,
2013-06-17 13:45:00,79.5,68.5,29.56,SSW,202,0.0,0.0,69,0.00,,,0.00,VWS V14.01,2013-06-17 17:45:00,
2013-06-17 13:50:00,79.7,68.2,29.56,ESE,112,0.0,0.0,68,0.00,,,0.00,VWS V14.01,2013-06-17 17:50:00,
2013-06-17 13:55:00,79.9,68.8,29.56,SE,135,0.0,0.0,69,0.00,,,0.00,VWS V14.01,2013-06-17 17:55:00,
2013-06-17 14:00:00,80.2,69.2,29.56,SE,135,0.0,0.0,69,0.00,,,0.00,VWS V14.01,2013-06-17 18:00:00,
2013-06-17 14:05:00,80.4,69.3,29.56,South,180,0.0,0.0,69,0.00,,,0.00,VWS V14.01,2013-06-17 18:05:00,
2013-06-17 14:10:00,80.2,69.2,29.56,ESE,112,0.0,0.0,69,0.00,,,0.00,VWS V14.01,2013-06-17 18:10:00,
2013-06-17 14:15:00,80.6,69.5,29.56,ESE,112,0.0,0.0,69,0.00,,,0.00,VWS V14.01,2013-06-17 18:15:00,
2013-06-17 14:20:00,81.5,70.4,29.56,ESE,112,0.0,0.0,69,0.00,,,0.00,VWS V14.01,2013-06-17 18:20:00,
2013-06-17 14:25:00,82.0,70.4,29.56,ESE,112,0.0,0.0,68,0.00,,,0.00,VWS V14.01,2013-06-17 18:25:00,
2013-06-17 14:30:00,83.5,71.4,29.56,East,90,0.0,0.0,67,0.00,,,0.00,VWS V14.01,2013-06-17 18:30:00,
2013-06-17 14:35:00,84.2,71.6,29.56,SSE,158,0.0,0.0,66,0.00,,,0.00,VWS V14.01,2013-06-17 18:35:00,
2013-06-17 14:40:00,84.2,71.6,29.56,ESE,112,0.0,0.0,66,0.00,,,0.00,VWS V14.01,2013-06-17 18:40:00,
2013-06-17 14:45:00,84.0,71.4,29.56,ESE,112,0.0,0.0,66,0.00,,,0.00,VWS V14.01,2013-06-17 18:45:00,
2013-06-17 14:50:00,84.6,71.5,29.56,SSE,158,0.0,0.0,65,0.00,,,0.00,VWS V14.01,2013-06-17 18:50:00,
2013-06-17 14:55:00,84.9,71.8,29.56,ESE,112,0.0,0.0,65,0.00,,,0.00,VWS V14.01,2013-06-17 18:55:00,
2013-06-17 15:00:00,84.6,71.1,29.56,South,180,0.0,0.0,64,0.00,,,0.00,VWS V14.01,2013-06-17 19:00:00,
2013-06-17 15:05:00,84.6,71.1,29.53,South,180,0.0,0.0,64,0.00,,,0.00,VWS V14.01,2013-06-17 19:05:00,
2013-06-17 15:10:00,84.4,70.9,29.53,East,90,0.0,0.0,64,0.00,,,0.00,VWS V14.01,2013-06-17 19:10:00,
2013-06-17 15:15:00,84.4,70.9,29.53,SW,225,0.0,0.0,64,0.00,,,0.00,VWS V14.01,2013-06-17 19:15:00,
2013-06-17 15:20:00,84.4,70.9,29.53,SE,135,0.0,0.0,64,0.00,,,0.00,VWS V14.01,2013-06-17 19:20:00,
2013-06-17 15:25:00,84.6,70.6,29.53,ESE,112,0.0,0.0,63,0.00,,,0.00,VWS V14.01,2013-06-17 19:25:00,
2013-06-17 15:30:00,84.6,70.6,29.53,SE,135,0.0,0.0,63,0.00,,,0.00,VWS V14.01,2013-06-17 19:30:00,
2013-06-17 15:35:00,84.4,70.9,29.53,ESE,112,0.0,0.0,64,0.00,,,0.00,VWS V14.01,2013-06-17 19:35:00,
2013-06-17 15:40:00,84.2,70.2,29.53,ESE,112,0.0,0.0,63,0.00,,,0.00,VWS V14.01,2013-06-17 19:40:00,
2013-06-17 15:46:00,84.4,70.4,29.53,SE,135,0.0,0.0,63,0.00,,,0.00,VWS V14.01,2013-06-17 19:46:00,
2013-06-17 15:51:00,84.2,70.2,29.53,SE,135,0.0,0.0,63,0.00,,,0.00,VWS V14.01,2013-06-17 19:51:00,
2013-06-17 15:56:00,84.4,70.9,29.53,SE,135,0.0,0.0,64,0.00,,,0.00,VWS V14.01,2013-06-17 19:56:00,
2013-06-17 16:01:00,84.2,70.7,29.53,SE,135,0.0,0.0,64,0.00,,,0.00,VWS V14.01,2013-06-17 20:01:00,
2013-06-17 16:06:00,84.4,70.9,29.53,SSE,158,0.0,0.0,64,0.00,,,0.00,VWS V14.01,2013-06-17 20:06:00,
2013-06-17 16:11:00,84.2,70.2,29.53,ESE,112,0.0,0.0,63,0.00,,,0.00,VWS V14.01,2013-06-17 20:11:00,
2013-06-17 16:16:00,84.4,70.4,29.53,SE,135,0.0,0.0,63,0.00,,,0.00,VWS V14.01,2013-06-17 20:16:00,
2013-06-17 16:21:00,84.4,70.4,29.50,SE,135,0.0,0.0,63,0.00,,,0.00,VWS V14.01,2013-06-17 20:21:00,
2013-06-17 16:26:00,84.2,70.2,29.50,South,180,0.0,0.0,63,0.00,,,0.00,VWS V14.01,2013-06-17 20:26:00,
2013-06-17 16:31:00,84.0,70.5,29.50,SE,135,0.0,0.0,64,0.00,,,0.00,VWS V14.01,2013-06-17 20:31:00,
2013-06-17 16:36:00,84.0,70.1,29.50,ESE,112,0.0,0.0,63,0.00,,,0.00,VWS V14.01,2013-06-17 20:36:00,
2013-06-17 16:41:00,84.2,70.2,29.50,SE,135,0.0,0.0,63,0.00,,,0.00,VWS V14.01,2013-06-17 20:41:00,
2013-06-17 16:46:00,84.0,70.5,29.50,ESE,112,0.0,0.0,64,0.00,,,0.00,VWS V14.01,2013-06-17 20:46:00,
2013-06-17 16:51:00,84.0,70.5,29.50,ESE,112,0.0,0.0,64,0.00,,,0.00,VWS V14.01,2013-06-17 20:51:00,
2013-06-17 16:56:00,84.0,70.5,29.50,SE,135,0.0,0.0,64,0.00,,,0.00,VWS V14.01,2013-06-17 20:56:00,
2013-06-17 17:01:00,83.8,69.9,29.50,ESE,112,0.0,0.0,63,0.00,,,0.00,VWS V14.01,2013-06-17 21:01:00,
2013-06-17 17:06:00,84.0,70.1,29.50,East,90,0.0,0.0,63,0.00,,,0.00,VWS V14.01,2013-06-17 21:06:00,
2013-06-17 17:11:00,84.2,70.2,29.50,ESE,112,0.0,0.0,63,0.00,,,0.00,VWS V14.01,2013-06-17 21:11:00,
2013-06-17 17:16:00,84.4,70.4,29.50,SE,135,0.0,0.0,63,0.00,,,0.00,VWS V14.01,2013-06-17 21:16:00,
2013-06-17 17:21:00,84.7,71.2,29.50,ESE,112,0.0,0.0,64,0.00,,,0.00,VWS V14.01,2013-06-17 21:21:00,
2013-06-17 17:26:00,84.4,70.4,29.50,SE,135,0.0,0.0,63,0.00,,,0.00,VWS V14.01,2013-06-17 21:26:00,
2013-06-17 17:31:00,84.2,70.7,29.50,East,90,0.0,0.0,64,0.00,,,0.00,VWS V14.01,2013-06-17 21:31:00,
2013-06-17 17:37:00,84.4,70.4,29.50,SE,135,0.0,0.0,63,0.00,,,0.00,VWS V14.01,2013-06-17 21:37:00,
2013-06-17 17:42:00,84.4,70.9,29.50,East,90,0.0,0.0,64,0.00,,,0.00,VWS V14.01,2013-06-17 21:42:00,
2013-06-17 17:47:00,84.2,70.2,29.50,ESE,112,0.0,0.0,63,0.00,,,0.00,VWS V14.01,2013-06-17 21:47:00,
2013-06-17 17:52:00,84.2,70.2,29.50,ESE,112,0.0,0.0,63,0.00,,,0.00,VWS V14.01,2013-06-17 21:52:00,
2013-06-17 17:57:00,84.2,70.2,29.50,ESE,112,0.0,0.0,63,0.00,,,0.00,VWS V14.01,2013-06-17 21:57:00,
2013-06-17 18:02:00,84.0,70.1,29.50,East,90,0.0,0.0,63,0.00,,,0.00,VWS V14.01,2013-06-17 22:02:00,
2013-06-17 18:07:00,84.0,70.1,29.50,ESE,112,0.0,0.0,63,0.00,,,0.00,VWS V14.01,2013-06-17 22:07:00,
2013-06-17 18:12:00,84.0,70.5,29.50,ESE,112,0.0,0.0,64,0.00,,,0.00,VWS V14.01,2013-06-17 22:12:00,
2013-06-17 18:17:00,84.0,70.5,29.50,SE,135,0.0,0.0,64,0.00,,,0.00,VWS V14.01,2013-06-17 22:17:00,
2013-06-17 18:22:00,84.0,70.5,29.50,ESE,112,0.0,0.0,64,0.00,,,0.00,VWS V14.01,2013-06-17 22:22:00,
2013-06-17 18:27:00,83.8,70.4,29.50,ESE,112,0.0,0.0,64,0.00,,,0.00,VWS V14.01,2013-06-17 22:27:00,
2013-06-17 18:32:00,83.8,70.4,29.50,ESE,112,0.0,0.0,64,0.00,,,0.00,VWS V14.01,2013-06-17 22:32:00,
2013-06-17 18:37:00,83.7,70.2,29.50,ESE,112,0.0,0.0,64,0.00,,,0.00,VWS V14.01,2013-06-17 22:37:00,
2013-06-17 18:42:00,83.7,70.7,29.50,ESE,112,0.0,0.0,65,0.00,,,0.00,VWS V14.01,2013-06-17 22:42:00,
2013-06-17 18:47:00,83.5,70.5,29.50,ESE,112,0.0,0.0,65,0.00,,,0.00,VWS V14.01,2013-06-17 22:47:00,
2013-06-17 18:52:00,83.5,70.5,29.50,ESE,112,0.0,0.0,65,0.00,,,0.00,VWS V14.01,2013-06-17 22:52:00,
2013-06-17 18:57:00,83.5,70.9,29.50,ESE,112,0.0,0.0,66,0.00,,,0.00,VWS V14.01,2013-06-17 22:57:00,
2013-06-17 19:02:00,83.3,70.8,29.50,ESE,112,0.0,0.0,66,0.00,,,0.00,VWS V14.01,2013-06-17 23:02:00,
2013-06-17 19:07:00,83.3,70.8,29.50,ESE,112,0.0,0.0,66,0.00,,,0.00,VWS V14.01,2013-06-17 23:07:00,
2013-06-17 19:12:00,83.3,70.8,29.50,ESE,112,0.0,0.0,66,0.00,,,0.00,VWS V14.01,2013-06-17 23:12:00,
2013-06-17 19:17:00,83.1,70.6,29.50,ESE,112,0.0,0.0,66,0.00,,,0.00,VWS V14.01,2013-06-17 23:17:00,
2013-06-17 19:23:00,83.1,70.6,29.50,ESE,112,0.0,0.0,66,0.00,,,0.00,VWS V14.01,2013-06-17 23:23:00,
2013-06-17 19:28:00,82.9,70.4,29.50,ESE,112,0.0,0.0,66,0.00,,,0.00,VWS V14.01,2013-06-17 23:28:00,
2013-06-17 19:33:00,82.8,70.2,29.50,ESE,112,0.0,0.0,66,0.00,,,0.00,VWS V14.01,2013-06-17 23:33:00,
2013-06-17 19:38:00,82.6,70.1,29.50,ESE,112,0.0,0.0,66,0.00,,,0.00,VWS V14.01,2013-06-17 23:38:00,
2013-06-17 19:43:00,82.4,69.9,29.50,ESE,112,0.0,0.0,66,0.00,,,0.00,VWS V14.01,2013-06-17 23:43:00,
2013-06-17 19:48:00,82.4,69.9,29.50,ESE,112,0.0,0.0,66,0.00,,,0.00,VWS V14.01,2013-06-17 23:48:00,
2013-06-17 19:53:00,82.2,70.2,29.50,ESE,112,0.0,0.0,67,0.00,,,0.00,VWS V14.01,2013-06-17 23:53:00,
2013-06-17 19:58:00,82.0,70.0,29.50,ESE,112,0.0,0.0,67,0.00,,,0.00,VWS V14.01,2013-06-17 23:58:00,
2013-06-17 20:03:00,82.0,70.0,29.50,ESE,112,0.0,0.0,67,0.00,,,0.00,VWS V14.01,2013-06-18 00:03:00,
2013-06-17 20:08:00,81.9,69.4,29.50,ESE,112,0.0,0.0,66,0.00,,,0.00,VWS V14.01,2013-06-18 00:08:00,
2013-06-17 20:13:00,81.7,69.2,29.50,ESE,112,0.0,0.0,66,0.00,,,0.00,VWS V14.01,2013-06-18 00:13:00,
2013-06-17 20:18:00,81.5,69.1,29.50,ESE,112,0.0,0.0,66,0.00,,,0.00,VWS V14.01,2013-06-18 00:18:00,
2013-06-17 20:23:00,81.3,68.9,29.50,ESE,112,0.0,0.0,66,0.00,,,0.00,VWS V14.01,2013-06-18 00:23:00,
2013-06-17 20:28:00,81.0,69.0,29.50,ESE,112,0.0,0.0,67,0.00,,,0.00,VWS V14.01,2013-06-18 00:28:00,
2013-06-17 20:33:00,81.0,69.0,29.50,East,90,0.0,0.0,67,0.00,,,0.00,VWS V14.01,2013-06-18 00:33:00,
2013-06-17 20:38:00,80.8,68.8,29.50,East,90,0.0,0.0,67,0.00,,,0.00,VWS V14.01,2013-06-18 00:38:00,
2013-06-17 20:43:00,80.6,68.6,29.50,ESE,112,0.0,0.0,67,0.00,,,0.00,VWS V14.01,2013-06-18 00:43:00,
2013-06-17 20:48:00,80.4,68.9,29.50,ESE,112,0.0,0.0,68,0.00,,,0.00,VWS V14.01,2013-06-18 00:48:00,
2013-06-17 20:53:00,80.1,68.6,29.50,ESE,112,0.0,0.0,68,0.00,,,0.00,VWS V14.01,2013-06-18 00:53:00,
2013-06-17 20:58:00,79.9,68.8,29.50,ESE,112,0.0,0.0,69,0.00,,,0.00,VWS V14.01,2013-06-18 00:58:00,
2013-06-17 21:03:00,79.9,68.8,29.50,ESE,112,0.0,0.0,69,0.00,,,0.00,VWS V14.01,2013-06-18 01:03:00,
2013-06-17 21:08:00,79.7,68.6,29.50,ESE,112,0.0,0.0,69,0.00,,,0.00,VWS V14.01,2013-06-18 01:08:00,
2013-06-17 21:13:00,79.5,68.5,29.50,ESE,112,0.0,0.0,69,0.00,,,0.00,VWS V14.01,2013-06-18 01:13:00,
2013-06-17 21:18:00,79.5,68.5,29.50,ESE,112,0.0,0.0,69,0.00,,,0.00,VWS V14.01,2013-06-18 01:18:00,
2013-06-17 21:24:00,79.3,68.3,29.50,ESE,112,0.0,0.0,69,0.00,,,0.00,VWS V14.01,2013-06-18 01:24:00,
2013-06-17 21:29:00,79.3,68.3,29.50,ESE,112,0.0,0.0,69,0.00,,,0.00,VWS V14.01,2013-06-18 01:29:00,
2013-06-17 21:34:00,79.3,67.9,29.50,ESE,112,0.0,0.0,68,0.00,,,0.00,VWS V14.01,2013-06-18 01:34:00,
2013-06-17 21:39:00,79.2,68.1,29.53,ESE,112,0.0,0.0,69,0.00,,,0.00,VWS V14.01,2013-06-18 01:39:00,
2013-06-17 21:44:00,79.2,68.1,29.53,ESE,112,0.0,0.0,69,0.00,,,0.00,VWS V14.01,2013-06-18 01:44:00,
2013-06-17 21:49:00,79.2,67.7,29.53,ESE,112,0.0,0.0,68,0.00,,,0.00,VWS V14.01,2013-06-18 01:49:00,
2013-06-17 21:54:00,79.0,67.5,29.53,ESE,112,0.0,0.0,68,0.00,,,0.00,VWS V14.01,2013-06-18 01:54:00,
2013-06-17 21:59:00,79.0,67.9,29.53,SE,135,0.0,0.0,69,0.00,,,0.00,VWS V14.01,2013-06-18 01:59:00,
2013-06-17 22:04:00,79.0,67.9,29.53,East,90,0.0,0.0,69,0.00,,,0.00,VWS V14.01,2013-06-18 02:04:00,
2013-06-17 22:09:00,78.8,67.8,29.53,ESE,112,0.0,0.0,69,0.00,,,0.00,VWS V14.01,2013-06-18 02:09:00,
2013-06-17 22:14:00,78.8,67.8,29.53,ESE,112,0.0,0.0,69,0.00,,,0.00,VWS V14.01,2013-06-18 02:14:00,
2013-06-17 22:19:00,78.8,67.8,29.53,SE,135,0.0,0.0,69,0.00,,,0.00,VWS V14.01,2013-06-18 02:19:00,
2013-06-17 22:24:00,78.6,68.0,29.53,ESE,112,0.0,0.0,70,0.00,,,0.00,VWS V14.01,2013-06-18 02:24:00,
2013-06-17 22:29:00,78.6,68.0,29.53,East,90,0.0,0.0,70,0.00,,,0.00,VWS V14.01,2013-06-18 02:29:00,
2013-06-17 22:34:00,78.6,68.0,29.53,ESE,112,0.0,0.0,70,0.00,,,0.00,VWS V14.01,2013-06-18 02:34:00,
2013-06-17 22:39:00,78.4,68.3,29.53,SE,135,0.0,0.0,71,0.00,,,0.00,VWS V14.01,2013-06-18 02:39:00,
2013-06-17 22:44:00,78.4,68.3,29.53,ESE,112,0.0,0.0,71,0.00,,,0.00,VWS V14.01,2013-06-18 02:44:00,
2013-06-17 22:49:00,78.4,68.3,29.53,ESE,112,0.0,0.0,71,0.00,,,0.00,VWS V14.01,2013-06-18 02:49:00,
2013-06-17 22:54:00,78.3,68.1,29.53,ESE,112,0.0,0.0,71,0.00,,,0.00,VWS V14.01,2013-06-18 02:54:00,
2013-06-17 22:59:00,78.3,68.1,29.53,ESE,112,0.0,0.0,71,0.00,,,0.00,VWS V14.01,2013-06-18 02:59:00,
2013-06-17 23:04:00,78.1,67.9,29.53,SE,135,0.0,0.0,71,0.00,,,0.00,VWS V14.01,2013-06-18 03:04:00,
2013-06-17 23:09:00,78.1,67.9,29.53,ESE,112,0.0,0.0,71,0.00,,,0.00,VWS V14.01,2013-06-18 03:09:00,
2013-06-17 23:14:00,77.9,67.8,29.53,ESE,112,0.0,0.0,71,0.00,,,0.00,VWS V14.01,2013-06-18 03:14:00,
2013-06-17 23:19:00,77.7,67.6,29.53,East,90,0.0,0.0,71,0.00,,,0.00,VWS V14.01,2013-06-18 03:19:00,
2013-06-17 23:25:00,77.7,67.6,29.53,SE,135,0.0,0.0,71,0.00,,,0.00,VWS V14.01,2013-06-18 03:25:00,
2013-06-17 23:30:00,77.5,67.8,29.53,ESE,112,0.0,0.0,72,0.00,,,0.00,VWS V14.01,2013-06-18 03:30:00,
2013-06-17 23:35:00,77.4,67.6,29.53,ESE,112,0.0,0.0,72,0.00,,,0.00,VWS V14.01,2013-06-18 03:35:00,
2013-06-17 23:40:00,77.4,67.6,29.53,East,90,0.0,0.0,72,0.00,,,0.00,VWS V14.01,2013-06-18 03:40:00,
2013-06-17 23:45:00,77.0,67.3,29.53,ESE,112,0.0,0.0,72,0.00,,,0.00,VWS V14.01,2013-06-18 03:45:00,
2013-06-17 23:50:00,77.0,67.3,29.53,ESE,112,0.0,0.0,72,0.00,,,0.00,VWS V14.01,2013-06-18 03:50:00,
2013-06-17 23:55:00,77.0,67.3,29.53,ESE,112,0.0,0.0,72,0.00,,,0.00,VWS V14.01,2013-06-18 03:55:00,